GFSMW_prec_precacc12_048.txt.gz
Total_Precipitation_Accumulation
0.00 0.00 0.00 0.00 0.00 0.00 0.00 0.01 0.04 0.04 0.11 0.11 0.04 0.01 0.02 0.00 0.00 0.00 0.02 0.03 0.03 0.10 0.06 0.02 0.02 0.01 0.00 0.00 0.00 0.00 0.00 0.00 0.00 0.00 0.00 0.00 0.00 0.00 0.00 0.00 0.00 0.00 0.00
0.00 0.00 0.00 0.00 0.00 0.00 0.00 0.00 0.01 0.02 0.05 0.06 0.06 0.01 0.00 0.00 0.00 0.00 0.04 0.05 0.08 0.07 0.07 0.04 0.01 0.01 0.01 0.00 0.00 0.00 0.00 0.00 0.00 0.00 0.00 0.00 0.00 0.00 0.00 0.00 0.00 0.00 0.00
0.00 0.00 0.00 0.00 0.00 0.00 0.00 0.00 0.00 0.00 0.01 0.01 0.01 0.00 0.00 0.00 0.00 0.00 0.02 0.04 0.05 0.04 0.06 0.03 0.00 0.00 0.00 0.00 0.00 0.00 0.00 0.00 0.00 0.00 0.00 0.00 0.00 0.00 0.00 0.00 0.00 0.00 0.00
0.00 0.00 0.00 0.00 0.00 0.00 0.00 0.00 0.00 0.00 0.00 0.00 0.00 0.00 0.00 0.00 0.00 0.00 0.01 0.03 0.01 0.05 0.16 0.07 0.02 0.00 0.00 0.00 0.01 0.00 0.01 0.01 0.00 0.01 0.01 0.00 0.00 0.00 0.00 0.00 0.00 0.00 0.00
0.00 0.00 0.00 0.00 0.00 0.00 0.00 0.00 0.00 0.00 0.00 0.00 0.00 0.00 0.00 0.00 0.00 0.00 0.00 0.00 0.02 0.02 0.08 0.09 0.06 0.02 0.05 0.08 0.09 0.07 0.09 0.12 0.14 0.08 0.02 0.00 0.00 0.00 0.00 0.00 0.00 0.00 0.00
0.00 0.00 0.00 0.00 0.00 0.00 0.00 0.00 0.00 0.00 0.00 0.00 0.00 0.00 0.02 0.01 0.00 0.00 0.00 0.03 0.01 0.14 0.16 0.16 0.15 0.12 0.11 0.15 0.17 0.20 0.17 0.14 0.07 0.05 0.03 0.02 0.05 0.04 0.01 0.00 0.00 0.00 0.00
0.00 0.00 0.00 0.00 0.00 0.00 0.00 0.00 0.00 0.00 0.00 0.00 0.00 0.00 0.01 0.01 0.00 0.00 0.05 0.12 0.11 0.25 0.23 0.22 0.19 0.12 0.17 0.24 0.23 0.19 0.14 0.12 0.08 0.06 0.07 0.09 0.06 0.04 0.02 0.01 0.00 0.00 0.00
0.00 0.00 0.00 0.00 0.00 0.00 0.00 0.00 0.00 0.00 0.00 0.00 0.00 0.00 0.01 0.00 0.00 0.02 0.13 0.21 0.15 0.12 0.21 0.19 0.27 0.26 0.21 0.24 0.25 0.21 0.21 0.19 0.17 0.14 0.10 0.07 0.04 0.02 0.01 0.01 0.00 0.00 0.00
0.00 0.00 0.00 0.00 0.00 0.00 0.00 0.00 0.00 0.00 0.00 0.00 0.00 0.00 0.00 0.00 0.01 0.06 0.12 0.16 0.18 0.12 0.20 0.28 0.27 0.26 0.36 0.44 0.43 0.38 0.30 0.26 0.20 0.12 0.05 0.03 0.02 0.03 0.02 0.01 0.00 0.00 0.00
0.00 0.00 0.01 0.00 0.00 0.00 0.02 0.01 0.00 0.02 0.07 0.09 0.01 0.00 0.00 0.00 0.04 0.05 0.10 0.17 0.27 0.35 0.44 0.45 0.45 0.43 0.40 0.41 0.39 0.32 0.24 0.17 0.12 0.06 0.05 0.05 0.06 0.04 0.04 0.04 0.03 0.02 0.00
0.00 0.00 0.01 0.01 0.01 0.00 0.01 0.05 0.12 0.32 0.28 0.28 0.24 0.13 0.07 0.12 0.31 0.37 0.35 0.39 0.45 0.48 0.52 0.50 0.40 0.29 0.25 0.29 0.28 0.16 0.12 0.10 0.07 0.05 0.07 0.07 0.08 0.08 0.07 0.06 0.04 0.02 0.01
0.00 0.00 0.00 0.00 0.01 0.01 0.01 0.02 0.06 0.14 0.23 0.32 0.42 0.46 0.45 0.63 1.22 1.27 1.09 1.34 1.40 1.08 0.87 0.67 0.44 0.30 0.18 0.11 0.09 0.04 0.04 0.07 0.07 0.07 0.08 0.08 0.08 0.08 0.07 0.05 0.03 0.02 0.00
0.00 0.00 0.00 0.00 0.00 0.00 0.00 0.01 0.06 0.17 0.35 0.51 0.58 0.57 0.55 0.71 0.80 0.53 0.39 0.33 0.47 0.47 0.28 0.19 0.12 0.08 0.05 0.03 0.03 0.03 0.03 0.04 0.04 0.07 0.08 0.08 0.07 0.05 0.03 0.02 0.00 0.00 0.00
0.00 0.00 0.00 0.00 0.00 0.00 0.00 0.00 0.02 0.16 0.23 0.20 0.27 0.24 0.15 0.21 0.27 0.25 0.21 0.18 0.17 0.16 0.16 0.14 0.14 0.08 0.04 0.03 0.03 0.02 0.03 0.04 0.05 0.05 0.03 0.03 0.01 0.01 0.00 0.00 0.00 0.00 0.00
0.00 0.00 0.00 0.00 0.00 0.00 0.00 0.00 0.01 0.04 0.02 0.02 0.08 0.08 0.13 0.15 0.14 0.10 0.11 0.14 0.17 0.24 0.19 0.18 0.09 0.08 0.08 0.07 0.05 0.02 0.02 0.03 0.02 0.01 0.01 0.01 0.01 0.01 0.01 0.00 0.00 0.00 0.00
0.00 0.00 0.00 0.00 0.00 0.00 0.00 0.00 0.00 0.01 0.01 0.02 0.06 0.05 0.09 0.09 0.10 0.06 0.05 0.09 0.10 0.11 0.13 0.15 0.12 0.09 0.09 0.13 0.07 0.02 0.01 0.01 0.01 0.01 0.00 0.00 0.02 0.00 0.00 0.00 0.00 0.00 0.00
0.00 0.00 0.00 0.00 0.00 0.00 0.00 0.00 0.00 0.00 0.01 0.04 0.04 0.05 0.06 0.08 0.06 0.08 0.06 0.08 0.11 0.07 0.07 0.09 0.10 0.10 0.08 0.10 0.04 0.03 0.00 0.00 0.00 0.00 0.00 0.00 0.01 0.01 0.00 0.00 0.00 0.00 0.00
0.00 0.00 0.00 0.00 0.00 0.00 0.00 0.00 0.00 0.00 0.01 0.03 0.04 0.04 0.04 0.05 0.06 0.06 0.08 0.08 0.07 0.07 0.05 0.05 0.06 0.05 0.04 0.06 0.03 0.02 0.00 0.00 0.00 0.00 0.00 0.00 0.01 0.01 0.00 0.00 0.00 0.00 0.00
0.00 0.00 0.00 0.00 0.00 0.00 0.00 0.00 0.00 0.01 0.01 0.02 0.02 0.03 0.05 0.05 0.05 0.05 0.04 0.05 0.06 0.06 0.05 0.04 0.04 0.02 0.02 0.04 0.02 0.01 0.00 0.00 0.01 0.01 0.01 0.01 0.01 0.01 0.00 0.00 0.00 0.00 0.00
0.00 0.00 0.00 0.00 0.00 0.00 0.00 0.01 0.00 0.00 0.01 0.01 0.01 0.02 0.02 0.02 0.01 0.02 0.02 0.03 0.04 0.03 0.02 0.01 0.01 0.01 0.01 0.03 0.02 0.01 0.00 0.01 0.01 0.01 0.01 0.01 0.00 0.00 0.00 0.00 0.00 0.00 0.00
0.00 0.00 0.00 0.00 0.00 0.00 0.00 0.00 0.00 0.00 0.00 0.01 0.01 0.01 0.00 0.00 0.00 0.00 0.01 0.01 0.01 0.01 0.01 0.00 0.00 0.00 0.00 0.01 0.01 0.01 0.00 0.00 0.00 0.00 0.00 0.00 0.00 0.00 0.00 0.00 0.00 0.00 0.00
0.00 0.00 0.00 0.00 0.00 0.00 0.00 0.00 0.00 0.00 0.01 0.02 0.01 0.00 0.00 0.00 0.00 0.01 0.01 0.02 0.01 0.00 0.00 0.00 0.00 0.00 0.00 0.00 0.01 0.00 0.00 0.00 0.00 0.00 0.00 0.00 0.00 0.00 0.00 0.00 0.00 0.00 0.00
0.00 0.00 0.00 0.00 0.00 0.00 0.00 0.00 0.01 0.03 0.03 0.02 0.01 0.00 0.00 0.00 0.00 0.00 0.01 0.00 0.00 0.00 0.00 0.00 0.00 0.00 0.00 0.00 0.00 0.00 0.00 0.00 0.00 0.00 0.00 0.00 0.00 0.00 0.00 0.00 0.00 0.00 0.00
0.00 0.00 0.00 0.00 0.00 0.00 0.00 0.02 0.04 0.03 0.02 0.01 0.00 0.00 0.00 0.00 0.00 0.00 0.00 0.00 0.00 0.00 0.00 0.00 0.00 0.00 0.00 0.00 0.00 0.00 0.00 0.00 0.00 0.00 0.00 0.00 0.00 0.00 0.00 0.00 0.00 0.00 0.00
0.00 0.00 0.00 0.00 0.00 0.01 0.01 0.01 0.01 0.01 0.00 0.00 0.00 0.00 0.00 0.00 0.00 0.00 0.00 0.00 0.00 0.00 0.00 0.00 0.00 0.00 0.00 0.00 0.00 0.00 0.00 0.00 0.00 0.00 0.00 0.00 0.00 0.00 0.00 0.00 0.00 0.00 0.00
0.00 0.00 0.00 0.00 0.00 0.00 0.00 0.00 0.00 0.00 0.00 0.00 0.00 0.00 0.00 0.00 0.00 0.00 0.00 0.00 0.00 0.00 0.00 0.00 0.00 0.00 0.00 0.00 0.00 0.00 0.00 0.00 0.00 0.00 0.00 0.00 0.00 0.00 0.00 0.00 0.00 0.00 0.00

GFSMW_prec_precacc12_054.txt.gz
Total_Precipitation_Accumulation
0.00 0.00 0.00 0.00 0.00 0.00 0.01 0.04 0.20 0.18 0.31 0.27 0.15 0.10 0.07 0.03 0.02 0.01 0.01 0.00 0.00 0.02 0.02 0.01 0.02 0.01 0.01 0.01 0.01 0.00 0.00 0.00 0.00 0.00 0.00 0.00 0.00 0.00 0.00 0.00 0.00 0.00 0.00
0.00 0.00 0.00 0.00 0.00 0.00 0.00 0.00 0.03 0.07 0.16 0.21 0.22 0.07 0.03 0.01 0.00 0.00 0.02 0.01 0.01 0.01 0.03 0.04 0.04 0.03 0.02 0.00 0.01 0.00 0.00 0.00 0.00 0.00 0.00 0.00 0.00 0.00 0.00 0.00 0.00 0.00 0.00
0.00 0.00 0.00 0.00 0.00 0.00 0.00 0.00 0.00 0.02 0.04 0.11 0.21 0.14 0.09 0.05 0.02 0.00 0.01 0.00 0.01 0.00 0.00 0.02 0.03 0.04 0.03 0.01 0.00 0.00 0.00 0.00 0.00 0.00 0.00 0.00 0.00 0.00 0.00 0.00 0.00 0.00 0.00
0.00 0.00 0.00 0.00 0.00 0.00 0.00 0.00 0.00 0.00 0.01 0.02 0.05 0.04 0.04 0.02 0.01 0.00 0.00 0.00 0.00 0.00 0.00 0.00 0.00 0.01 0.01 0.01 0.02 0.02 0.02 0.01 0.00 0.00 0.01 0.00 0.00 0.00 0.00 0.00 0.00 0.00 0.00
0.00 0.00 0.00 0.00 0.00 0.00 0.00 0.00 0.00 0.00 0.00 0.00 0.01 0.01 0.00 0.00 0.00 0.00 0.00 0.00 0.00 0.00 0.00 0.00 0.01 0.02 0.02 0.04 0.08 0.09 0.09 0.05 0.06 0.05 0.02 0.01 0.00 0.00 0.01 0.02 0.01 0.01 0.00
0.00 0.00 0.00 0.00 0.00 0.00 0.00 0.00 0.00 0.00 0.00 0.00 0.00 0.00 0.00 0.00 0.00 0.00 0.00 0.00 0.00 0.00 0.00 0.00 0.02 0.07 0.04 0.07 0.13 0.16 0.12 0.11 0.08 0.09 0.05 0.03 0.02 0.01 0.01 0.01 0.02 0.03 0.02
0.00 0.00 0.00 0.00 0.00 0.00 0.00 0.00 0.00 0.00 0.00 0.00 0.00 0.00 0.00 0.00 0.00 0.00 0.00 0.00 0.00 0.00 0.00 0.00 0.02 0.04 0.08 0.14 0.15 0.17 0.15 0.15 0.11 0.10 0.11 0.08 0.05 0.04 0.03 0.04 0.06 0.08 0.06
0.00 0.00 0.00 0.00 0.00 0.00 0.00 0.00 0.00 0.00 0.00 0.00 0.00 0.00 0.00 0.00 0.00 0.00 0.00 0.00 0.00 0.00 0.00 0.01 0.06 0.13 0.13 0.15 0.19 0.20 0.21 0.21 0.19 0.20 0.20 0.20 0.16 0.15 0.19 0.24 0.29 0.28 0.16
0.00 0.00 0.00 0.00 0.00 0.00 0.00 0.00 0.00 0.00 0.00 0.00 0.00 0.00 0.00 0.00 0.00 0.00 0.00 0.02 0.04 0.01 0.01 0.04 0.08 0.13 0.23 0.33 0.37 0.35 0.30 0.28 0.23 0.19 0.16 0.12 0.09 0.11 0.12 0.13 0.13 0.17 0.21
0.00 0.00 0.00 0.00 0.00 0.00 0.01 0.01 0.00 0.00 0.00 0.00 0.00 0.00 0.00 0.00 0.00 0.00 0.00 0.01 0.04 0.06 0.09 0.16 0.23 0.26 0.28 0.33 0.34 0.32 0.26 0.21 0.16 0.13 0.12 0.12 0.12 0.13 0.14 0.15 0.15 0.16 0.22
0.00 0.00 0.00 0.00 0.00 0.00 0.00 0.02 0.03 0.01 0.05 0.07 0.14 0.07 0.01 0.00 0.02 0.03 0.04 0.05 0.07 0.10 0.22 0.29 0.27 0.23 0.20 0.28 0.36 0.40 0.43 0.41 0.36 0.31 0.27 0.22 0.24 0.25 0.24 0.23 0.20 0.16 0.14
0.00 0.00 0.00 0.00 0.00 0.00 0.00 0.00 0.02 0.01 0.03 0.12 0.16 0.19 0.11 0.06 0.07 0.12 0.12 0.24 0.37 0.51 0.72 0.59 0.37 0.25 0.15 0.11 0.12 0.15 0.17 0.19 0.19 0.21 0.24 0.23 0.29 0.34 0.28 0.18 0.11 0.09 0.07
0.00 0.00 0.00 0.00 0.00 0.00 0.00 0.00 0.01 0.00 0.03 0.03 0.05 0.08 0.12 0.14 0.09 0.06 0.06 0.03 0.06 0.23 0.25 0.17 0.09 0.05 0.03 0.02 0.03 0.06 0.11 0.16 0.13 0.12 0.12 0.10 0.10 0.08 0.06 0.06 0.06 0.06 0.05
0.00 0.00 0.00 0.00 0.00 0.00 0.00 0.00 0.00 0.00 0.00 0.00 0.00 0.01 0.03 0.06 0.08 0.10 0.07 0.08 0.10 0.07 0.11 0.11 0.12 0.09 0.04 0.03 0.03 0.02 0.03 0.04 0.05 0.05 0.03 0.04 0.04 0.04 0.05 0.06 0.05 0.05 0.04
0.00 0.00 0.00 0.00 0.00 0.00 0.00 0.00 0.00 0.00 0.00 0.00 0.00 0.01 0.02 0.05 0.03 0.03 0.06 0.11 0.13 0.19 0.18 0.18 0.10 0.10 0.09 0.08 0.08 0.04 0.03 0.04 0.04 0.03 0.02 0.03 0.06 0.07 0.03 0.01 0.01 0.00 0.01
0.00 0.00 0.00 0.00 0.00 0.00 0.00 0.00 0.00 0.00 0.00 0.00 0.00 0.01 0.02 0.03 0.04 0.02 0.04 0.06 0.08 0.11 0.17 0.19 0.19 0.15 0.14 0.22 0.20 0.13 0.07 0.05 0.04 0.04 0.03 0.04 0.08 0.03 0.05 0.04 0.03 0.01 0.00
0.00 0.00 0.00 0.00 0.00 0.00 0.00 0.00 0.00 0.00 0.00 0.00 0.01 0.01 0.02 0.03 0.02 0.04 0.04 0.06 0.11 0.09 0.10 0.11 0.15 0.18 0.18 0.26 0.18 0.17 0.08 0.08 0.09 0.06 0.05 0.04 0.05 0.09 0.02 0.05 0.03 0.01 0.00
0.00 0.00 0.00 0.00 0.00 0.00 0.00 0.00 0.00 0.00 0.00 0.00 0.00 0.01 0.01 0.02 0.03 0.05 0.08 0.08 0.08 0.09 0.08 0.09 0.11 0.10 0.11 0.19 0.14 0.13 0.04 0.03 0.03 0.03 0.03 0.03 0.04 0.04 0.04 0.01 0.01 0.00 0.00
0.00 0.00 0.00 0.00 0.00 0.00 0.00 0.00 0.00 0.00 0.00 0.00 0.00 0.01 0.03 0.03 0.04 0.05 0.04 0.05 0.07 0.10 0.10 0.09 0.09 0.08 0.11 0.19 0.10 0.06 0.01 0.02 0.03 0.03 0.04 0.05 0.04 0.10 0.08 0.01 0.00 0.00 0.00
0.00 0.00 0.00 0.00 0.00 0.00 0.00 0.00 0.00 0.00 0.00 0.01 0.01 0.02 0.02 0.02 0.01 0.03 0.02 0.04 0.06 0.06 0.05 0.06 0.06 0.12 0.07 0.16 0.09 0.06 0.01 0.02 0.03 0.03 0.05 0.10 0.05 0.06 0.03 0.01 0.00 0.00 0.00
0.00 0.00 0.00 0.00 0.00 0.00 0.00 0.00 0.00 0.00 0.00 0.01 0.01 0.03 0.03 0.04 0.04 0.01 0.02 0.02 0.02 0.02 0.02 0.04 0.03 0.04 0.07 0.09 0.10 0.07 0.01 0.01 0.03 0.04 0.04 0.05 0.07 0.03 0.01 0.00 0.00 0.00 0.00
0.00 0.00 0.00 0.00 0.00 0.00 0.00 0.00 0.00 0.00 0.01 0.03 0.04 0.05 0.06 0.08 0.06 0.05 0.06 0.05 0.03 0.03 0.03 0.03 0.03 0.03 0.05 0.09 0.09 0.07 0.06 0.06 0.01 0.01 0.01 0.03 0.06 0.01 0.00 0.00 0.00 0.00 0.00
0.00 0.00 0.00 0.00 0.00 0.00 0.00 0.00 0.01 0.03 0.05 0.06 0.07 0.09 0.09 0.06 0.05 0.04 0.04 0.03 0.03 0.04 0.05 0.05 0.06 0.07 0.06 0.08 0.11 0.09 0.07 0.05 0.02 0.01 0.01 0.03 0.02 0.00 0.00 0.00 0.00 0.00 0.00
0.01 0.00 0.00 0.00 0.00 0.00 0.00 0.02 0.05 0.04 0.04 0.03 0.07 0.06 0.05 0.06 0.03 0.02 0.02 0.02 0.03 0.04 0.04 0.04 0.04 0.05 0.07 0.08 0.08 0.05 0.02 0.01 0.00 0.00 0.00 0.00 0.00 0.00 0.00 0.00 0.00 0.00 0.00
0.02 0.01 0.01 0.02 0.02 0.03 0.03 0.04 0.04 0.06 0.07 0.05 0.04 0.02 0.02 0.01 0.00 0.00 0.02 0.02 0.02 0.04 0.02 0.02 0.02 0.03 0.03 0.03 0.02 0.01 0.00 0.01 0.02 0.03 0.02 0.01 0.00 0.00 0.00 0.00 0.00 0.00 0.00
0.16 0.05 0.02 0.02 0.03 0.07 0.10 0.08 0.07 0.06 0.05 0.02 0.01 0.02 0.00 0.00 0.00 0.01 0.03 0.05 0.05 0.04 0.02 0.03 0.03 0.05 0.05 0.06 0.07 0.07 0.06 0.05 0.03 0.02 0.01 0.01 0.00 0.01 0.01 0.01 0.01 0.01 0.01

GFSMW_prec_precacc12_060.txt.gz
Total_Precipitation_Accumulation
0.00 0.00 0.00 0.00 0.00 0.00 0.01 0.04 0.16 0.16 0.21 0.17 0.14 0.19 0.25 0.39 0.20 0.07 0.02 0.00 0.00 0.00 0.00 0.00 0.00 0.00 0.00 0.00 0.01 0.00 0.00 0.00 0.00 0.00 0.00 0.00 0.00 0.00 0.00 0.00 0.00 0.00 0.00
0.00 0.00 0.00 0.00 0.00 0.00 0.01 0.01 0.02 0.06 0.11 0.16 0.17 0.08 0.08 0.11 0.08 0.02 0.02 0.01 0.02 0.00 0.00 0.00 0.02 0.02 0.01 0.00 0.01 0.00 0.00 0.00 0.00 0.00 0.00 0.00 0.00 0.00 0.00 0.00 0.00 0.00 0.00
0.00 0.00 0.00 0.00 0.00 0.00 0.01 0.01 0.00 0.02 0.03 0.12 0.22 0.15 0.11 0.08 0.07 0.03 0.02 0.00 0.03 0.00 0.00 0.01 0.03 0.04 0.03 0.01 0.00 0.00 0.00 0.00 0.00 0.00 0.00 0.00 0.00 0.00 0.00 0.00 0.00 0.00 0.00
0.00 0.00 0.00 0.00 0.00 0.00 0.00 0.01 0.01 0.00 0.01 0.03 0.06 0.05 0.07 0.05 0.01 0.00 0.01 0.01 0.03 0.03 0.00 0.00 0.00 0.00 0.01 0.02 0.03 0.02 0.00 0.00 0.00 0.00 0.00 0.00 0.03 0.09 0.08 0.01 0.00 0.00 0.00
0.00 0.00 0.00 0.00 0.00 0.00 0.00 0.01 0.01 0.00 0.00 0.01 0.01 0.01 0.01 0.01 0.01 0.01 0.00 0.01 0.03 0.05 0.01 0.00 0.00 0.02 0.01 0.00 0.06 0.04 0.03 0.01 0.07 0.05 0.01 0.01 0.00 0.01 0.09 0.10 0.05 0.01 0.00
0.00 0.00 0.00 0.00 0.00 0.00 0.00 0.00 0.01 0.01 0.00 0.00 0.00 0.00 0.00 0.00 0.00 0.00 0.00 0.00 0.01 0.03 0.04 0.01 0.01 0.05 0.08 0.07 0.09 0.14 0.07 0.04 0.10 0.20 0.11 0.11 0.08 0.05 0.05 0.05 0.06 0.10 0.05
0.00 0.00 0.00 0.00 0.00 0.00 0.00 0.00 0.00 0.01 0.01 0.00 0.00 0.00 0.00 0.00 0.00 0.00 0.00 0.00 0.00 0.00 0.02 0.02 0.01 0.01 0.02 0.04 0.06 0.14 0.15 0.17 0.18 0.18 0.19 0.15 0.10 0.07 0.08 0.12 0.08 0.11 0.10
0.00 0.00 0.00 0.00 0.00 0.00 0.00 0.00 0.00 0.00 0.01 0.00 0.00 0.00 0.00 0.00 0.00 0.00 0.00 0.00 0.00 0.00 0.00 0.01 0.01 0.01 0.00 0.01 0.02 0.03 0.03 0.06 0.09 0.14 0.19 0.21 0.18 0.16 0.18 0.25 0.32 0.30 0.20
0.00 0.00 0.00 0.00 0.00 0.00 0.00 0.00 0.00 0.00 0.00 0.00 0.00 0.00 0.00 0.00 0.00 0.00 0.00 0.00 0.00 0.00 0.00 0.00 0.01 0.01 0.00 0.00 0.02 0.02 0.03 0.07 0.06 0.10 0.14 0.13 0.08 0.12 0.13 0.14 0.16 0.19 0.24
0.00 0.00 0.00 0.00 0.00 0.00 0.00 0.00 0.00 0.00 0.00 0.00 0.00 0.00 0.00 0.00 0.00 0.00 0.00 0.00 0.00 0.00 0.00 0.00 0.01 0.02 0.02 0.02 0.01 0.03 0.04 0.08 0.09 0.11 0.10 0.10 0.10 0.12 0.14 0.15 0.15 0.20 0.29
0.00 0.00 0.00 0.00 0.00 0.00 0.00 0.00 0.00 0.00 0.00 0.00 0.00 0.00 0.00 0.00 0.00 0.00 0.00 0.00 0.00 0.00 0.00 0.00 0.00 0.00 0.00 0.02 0.08 0.24 0.32 0.34 0.31 0.28 0.22 0.17 0.19 0.22 0.21 0.22 0.24 0.23 0.25
0.00 0.00 0.00 0.00 0.00 0.00 0.00 0.00 0.00 0.00 0.00 0.00 0.00 0.01 0.01 0.00 0.00 0.00 0.00 0.00 0.00 0.00 0.00 0.00 0.00 0.00 0.00 0.01 0.04 0.12 0.14 0.13 0.16 0.17 0.20 0.18 0.23 0.31 0.27 0.22 0.16 0.13 0.11
0.00 0.00 0.00 0.00 0.00 0.00 0.00 0.00 0.00 0.00 0.00 0.00 0.00 0.00 0.03 0.02 0.01 0.00 0.00 0.00 0.00 0.00 0.00 0.00 0.00 0.00 0.00 0.00 0.01 0.04 0.09 0.13 0.10 0.08 0.08 0.06 0.07 0.07 0.07 0.08 0.09 0.08 0.09
0.00 0.00 0.00 0.00 0.00 0.00 0.00 0.00 0.00 0.00 0.00 0.00 0.00 0.00 0.00 0.00 0.02 0.02 0.00 0.00 0.00 0.00 0.00 0.00 0.01 0.02 0.01 0.00 0.00 0.00 0.00 0.01 0.01 0.01 0.02 0.04 0.05 0.06 0.07 0.09 0.09 0.08 0.07
0.00 0.00 0.00 0.00 0.00 0.00 0.00 0.00 0.00 0.00 0.00 0.00 0.00 0.00 0.00 0.00 0.00 0.00 0.01 0.01 0.01 0.01 0.02 0.02 0.02 0.02 0.01 0.02 0.03 0.02 0.01 0.01 0.02 0.02 0.02 0.04 0.07 0.07 0.04 0.03 0.03 0.03 0.05
0.00 0.00 0.00 0.00 0.00 0.00 0.00 0.00 0.00 0.00 0.00 0.00 0.00 0.00 0.00 0.00 0.00 0.00 0.00 0.00 0.00 0.02 0.05 0.05 0.08 0.06 0.06 0.11 0.14 0.10 0.06 0.04 0.03 0.04 0.05 0.06 0.09 0.05 0.09 0.09 0.10 0.08 0.07
0.00 0.00 0.00 0.00 0.00 0.00 0.00 0.00 0.00 0.00 0.00 0.00 0.00 0.00 0.00 0.00 0.00 0.00 0.00 0.00 0.00 0.02 0.02 0.02 0.05 0.09 0.10 0.17 0.15 0.15 0.09 0.09 0.10 0.08 0.07 0.05 0.08 0.14 0.06 0.14 0.16 0.13 0.16
0.00 0.00 0.00 0.00 0.00 0.00 0.00 0.00 0.00 0.00 0.00 0.00 0.00 0.00 0.00 0.00 0.00 0.00 0.00 0.00 0.01 0.03 0.03 0.04 0.06 0.05 0.08 0.15 0.13 0.15 0.06 0.05 0.06 0.06 0.06 0.06 0.07 0.14 0.16 0.12 0.17 0.20 0.25
0.00 0.00 0.00 0.00 0.00 0.00 0.00 0.00 0.00 0.00 0.00 0.00 0.00 0.00 0.00 0.00 0.00 0.00 0.00 0.00 0.01 0.04 0.05 0.05 0.05 0.07 0.10 0.18 0.13 0.09 0.03 0.06 0.09 0.07 0.10 0.15 0.12 0.36 0.29 0.17 0.20 0.24 0.24
0.00 0.00 0.00 0.00 0.00 0.00 0.00 0.00 0.00 0.00 0.00 0.00 0.00 0.00 0.00 0.00 0.01 0.01 0.01 0.01 0.02 0.03 0.03 0.05 0.05 0.12 0.07 0.23 0.17 0.12 0.03 0.08 0.10 0.10 0.16 0.30 0.17 0.26 0.15 0.08 0.05 0.09 0.11
0.00 0.00 0.00 0.00 0.00 0.00 0.00 0.00 0.00 0.00 0.00 0.00 0.00 0.02 0.02 0.03 0.04 0.02 0.01 0.01 0.02 0.02 0.02 0.04 0.03 0.05 0.10 0.15 0.18 0.15 0.05 0.05 0.09 0.15 0.16 0.23 0.34 0.21 0.19 0.15 0.13 0.17 0.19
0.00 0.00 0.00 0.00 0.00 0.00 0.00 0.00 0.00 0.00 0.00 0.01 0.03 0.05 0.06 0.08 0.06 0.04 0.05 0.04 0.04 0.04 0.04 0.04 0.05 0.05 0.07 0.16 0.16 0.14 0.14 0.18 0.10 0.16 0.18 0.29 0.34 0.20 0.20 0.20 0.21 0.21 0.18
0.00 0.00 0.00 0.00 0.00 0.00 0.00 0.00 0.00 0.00 0.01 0.03 0.06 0.08 0.09 0.06 0.04 0.06 0.07 0.08 0.06 0.07 0.08 0.08 0.10 0.12 0.12 0.16 0.21 0.18 0.19 0.21 0.21 0.28 0.33 0.35 0.29 0.22 0.20 0.20 0.18 0.15 0.13
0.01 0.00 0.00 0.00 0.00 0.00 0.00 0.00 0.01 0.02 0.02 0.03 0.07 0.06 0.06 0.08 0.05 0.08 0.09 0.08 0.08 0.10 0.12 0.14 0.15 0.16 0.18 0.21 0.21 0.20 0.20 0.23 0.22 0.25 0.26 0.24 0.20 0.18 0.16 0.14 0.11 0.09 0.06
0.03 0.02 0.01 0.02 0.03 0.04 0.05 0.05 0.06 0.09 0.12 0.10 0.11 0.10 0.09 0.09 0.08 0.09 0.13 0.11 0.13 0.19 0.17 0.17 0.16 0.17 0.22 0.26 0.28 0.24 0.23 0.23 0.25 0.24 0.24 0.22 0.18 0.14 0.10 0.07 0.05 0.04 0.03
0.18 0.15 0.13 0.10 0.10 0.12 0.17 0.18 0.17 0.16 0.17 0.16 0.17 0.20 0.15 0.14 0.13 0.11 0.16 0.28 0.28 0.27 0.30 0.32 0.29 0.39 0.44 0.49 0.48 0.44 0.38 0.30 0.24 0.19 0.17 0.15 0.11 0.09 0.08 0.07 0.06 0.03 0.02

GFSMW_prec_precacc12_063.txt.gz
Total_Precipitation_Accumulation
0.00 0.00 0.00 0.00 0.00 0.00 0.01 0.02 0.11 0.10 0.06 0.05 0.10 0.18 0.26 0.45 0.25 0.17 0.05 0.01 0.00 0.00 0.01 0.00 0.01 0.01 0.03 0.00 0.00 0.00 0.00 0.00 0.00 0.00 0.00 0.00 0.00 0.00 0.00 0.00 0.00 0.00 0.00
0.00 0.00 0.00 0.00 0.00 0.00 0.01 0.01 0.01 0.04 0.07 0.08 0.06 0.05 0.08 0.13 0.12 0.08 0.07 0.01 0.02 0.00 0.00 0.00 0.01 0.01 0.01 0.01 0.00 0.00 0.00 0.00 0.00 0.00 0.00 0.00 0.00 0.00 0.00 0.00 0.00 0.00 0.00
0.00 0.00 0.00 0.00 0.00 0.00 0.01 0.01 0.00 0.01 0.02 0.08 0.08 0.12 0.11 0.10 0.11 0.05 0.02 0.00 0.03 0.00 0.00 0.00 0.00 0.00 0.00 0.00 0.00 0.00 0.00 0.00 0.00 0.00 0.00 0.00 0.00 0.00 0.00 0.00 0.00 0.00 0.00
0.00 0.00 0.00 0.00 0.00 0.00 0.00 0.01 0.01 0.00 0.01 0.02 0.03 0.05 0.07 0.06 0.02 0.00 0.01 0.01 0.03 0.03 0.00 0.00 0.00 0.00 0.00 0.01 0.01 0.01 0.00 0.00 0.00 0.00 0.00 0.00 0.03 0.10 0.09 0.01 0.00 0.00 0.00
0.00 0.00 0.00 0.00 0.00 0.00 0.00 0.01 0.01 0.01 0.00 0.01 0.01 0.01 0.01 0.01 0.01 0.01 0.00 0.01 0.03 0.05 0.01 0.00 0.00 0.02 0.01 0.00 0.04 0.02 0.01 0.00 0.06 0.04 0.00 0.00 0.00 0.01 0.12 0.10 0.05 0.01 0.00
0.00 0.00 0.00 0.00 0.00 0.00 0.00 0.00 0.01 0.01 0.00 0.00 0.00 0.00 0.00 0.00 0.00 0.00 0.00 0.00 0.01 0.04 0.04 0.01 0.01 0.05 0.08 0.07 0.09 0.14 0.05 0.02 0.07 0.20 0.10 0.11 0.07 0.04 0.04 0.04 0.05 0.10 0.05
0.00 0.00 0.00 0.00 0.00 0.00 0.00 0.00 0.00 0.01 0.01 0.00 0.00 0.00 0.00 0.00 0.00 0.00 0.00 0.00 0.00 0.01 0.03 0.02 0.01 0.01 0.02 0.04 0.06 0.15 0.14 0.15 0.16 0.16 0.13 0.13 0.12 0.06 0.07 0.12 0.08 0.12 0.11
0.00 0.00 0.00 0.00 0.00 0.00 0.00 0.00 0.00 0.00 0.01 0.01 0.00 0.00 0.00 0.00 0.00 0.00 0.00 0.00 0.00 0.00 0.00 0.01 0.01 0.01 0.00 0.02 0.03 0.05 0.04 0.06 0.10 0.09 0.07 0.06 0.05 0.06 0.10 0.22 0.31 0.28 0.20
0.00 0.00 0.00 0.00 0.00 0.00 0.00 0.00 0.00 0.00 0.00 0.01 0.00 0.00 0.00 0.00 0.00 0.00 0.00 0.00 0.00 0.00 0.00 0.00 0.01 0.01 0.00 0.00 0.02 0.04 0.04 0.07 0.02 0.02 0.04 0.05 0.01 0.06 0.11 0.12 0.16 0.18 0.19
0.00 0.00 0.00 0.00 0.00 0.00 0.00 0.00 0.00 0.00 0.00 0.00 0.01 0.00 0.00 0.00 0.00 0.00 0.00 0.00 0.00 0.00 0.00 0.00 0.01 0.02 0.02 0.02 0.03 0.03 0.03 0.05 0.02 0.02 0.03 0.06 0.06 0.09 0.15 0.14 0.14 0.20 0.27
0.00 0.00 0.00 0.00 0.00 0.00 0.00 0.00 0.00 0.00 0.00 0.00 0.00 0.00 0.00 0.00 0.00 0.00 0.00 0.00 0.00 0.00 0.00 0.00 0.00 0.00 0.00 0.01 0.01 0.00 0.00 0.00 0.00 0.01 0.04 0.08 0.12 0.17 0.17 0.21 0.22 0.22 0.24
0.00 0.00 0.00 0.00 0.00 0.00 0.00 0.00 0.00 0.00 0.00 0.00 0.00 0.00 0.00 0.00 0.00 0.00 0.00 0.00 0.00 0.00 0.00 0.00 0.00 0.00 0.00 0.00 0.00 0.00 0.00 0.00 0.02 0.06 0.11 0.12 0.18 0.28 0.25 0.20 0.15 0.12 0.12
0.00 0.00 0.00 0.00 0.01 0.04 0.02 0.00 0.01 0.02 0.01 0.00 0.00 0.00 0.00 0.01 0.00 0.00 0.00 0.00 0.00 0.00 0.00 0.00 0.00 0.00 0.00 0.00 0.00 0.00 0.00 0.00 0.03 0.06 0.07 0.05 0.04 0.05 0.06 0.07 0.08 0.08 0.10
0.00 0.00 0.00 0.00 0.00 0.03 0.05 0.05 0.02 0.03 0.05 0.02 0.00 0.00 0.00 0.00 0.02 0.02 0.00 0.00 0.00 0.00 0.00 0.00 0.00 0.00 0.00 0.00 0.00 0.00 0.00 0.01 0.01 0.01 0.02 0.03 0.04 0.04 0.04 0.06 0.06 0.07 0.08
0.00 0.00 0.00 0.00 0.00 0.00 0.01 0.02 0.03 0.03 0.06 0.08 0.02 0.00 0.00 0.00 0.00 0.00 0.01 0.00 0.00 0.00 0.00 0.00 0.00 0.00 0.00 0.00 0.00 0.00 0.01 0.00 0.00 0.01 0.01 0.02 0.03 0.03 0.02 0.03 0.03 0.03 0.06
0.00 0.00 0.00 0.00 0.00 0.00 0.00 0.00 0.00 0.02 0.02 0.01 0.03 0.04 0.00 0.00 0.00 0.00 0.00 0.00 0.00 0.00 0.00 0.00 0.00 0.00 0.00 0.01 0.03 0.03 0.02 0.02 0.01 0.01 0.02 0.02 0.05 0.04 0.07 0.09 0.11 0.09 0.09
0.00 0.00 0.00 0.00 0.00 0.00 0.00 0.00 0.00 0.00 0.00 0.00 0.00 0.01 0.00 0.00 0.00 0.00 0.00 0.00 0.00 0.00 0.00 0.01 0.00 0.01 0.02 0.05 0.07 0.06 0.04 0.03 0.04 0.04 0.04 0.05 0.07 0.12 0.06 0.14 0.17 0.16 0.21
0.00 0.00 0.00 0.00 0.00 0.00 0.00 0.00 0.00 0.00 0.00 0.00 0.00 0.00 0.00 0.01 0.01 0.02 0.00 0.00 0.00 0.00 0.00 0.01 0.02 0.02 0.03 0.06 0.08 0.10 0.04 0.03 0.04 0.04 0.05 0.06 0.07 0.13 0.16 0.12 0.17 0.21 0.28
0.00 0.00 0.00 0.00 0.00 0.00 0.00 0.00 0.00 0.00 0.00 0.00 0.00 0.00 0.00 0.00 0.00 0.01 0.00 0.00 0.00 0.00 0.00 0.02 0.02 0.04 0.05 0.12 0.10 0.07 0.03 0.06 0.08 0.07 0.10 0.15 0.12 0.38 0.32 0.19 0.22 0.29 0.32
0.00 0.00 0.00 0.00 0.00 0.00 0.00 0.00 0.00 0.00 0.00 0.00 0.00 0.00 0.00 0.00 0.00 0.00 0.00 0.00 0.00 0.00 0.01 0.01 0.02 0.07 0.04 0.19 0.16 0.13 0.05 0.10 0.11 0.12 0.16 0.32 0.19 0.31 0.20 0.12 0.08 0.20 0.27
0.00 0.00 0.00 0.00 0.00 0.00 0.00 0.00 0.00 0.00 0.00 0.00 0.00 0.00 0.00 0.00 0.01 0.01 0.01 0.01 0.01 0.01 0.02 0.02 0.02 0.05 0.11 0.16 0.23 0.21 0.08 0.07 0.12 0.17 0.19 0.28 0.42 0.27 0.28 0.26 0.25 0.42 0.47
0.00 0.00 0.00 0.00 0.00 0.00 0.00 0.00 0.00 0.00 0.00 0.00 0.00 0.00 0.01 0.03 0.04 0.05 0.07 0.07 0.05 0.05 0.05 0.04 0.04 0.04 0.07 0.18 0.19 0.17 0.18 0.24 0.13 0.21 0.24 0.40 0.45 0.29 0.30 0.30 0.35 0.38 0.33
0.00 0.00 0.00 0.00 0.00 0.00 0.00 0.00 0.00 0.00 0.00 0.00 0.00 0.01 0.04 0.04 0.04 0.07 0.09 0.10 0.08 0.08 0.08 0.08 0.09 0.12 0.14 0.18 0.26 0.24 0.27 0.31 0.29 0.40 0.52 0.59 0.51 0.43 0.42 0.42 0.38 0.32 0.27
0.01 0.00 0.00 0.00 0.00 0.00 0.00 0.00 0.00 0.00 0.00 0.01 0.05 0.05 0.06 0.09 0.05 0.08 0.10 0.09 0.09 0.12 0.14 0.18 0.22 0.25 0.27 0.28 0.27 0.26 0.27 0.34 0.39 0.50 0.55 0.52 0.47 0.42 0.39 0.34 0.28 0.23 0.19
0.02 0.02 0.01 0.02 0.03 0.04 0.05 0.04 0.05 0.08 0.11 0.09 0.11 0.11 0.11 0.11 0.11 0.12 0.18 0.16 0.23 0.33 0.34 0.35 0.34 0.34 0.41 0.53 0.59 0.58 0.61 0.64 0.67 0.64 0.64 0.62 0.53 0.47 0.39 0.28 0.19 0.14 0.11
0.18 0.15 0.13 0.10 0.09 0.10 0.15 0.18 0.17 0.16 0.17 0.16 0.18 0.22 0.17 0.17 0.17 0.16 0.24 0.40 0.43 0.42 0.47 0.52 0.50 0.64 0.72 0.83 0.82 0.78 0.75 0.72 0.65 0.55 0.51 0.46 0.35 0.25 0.20 0.17 0.13 0.08 0.05

GFSMW_prec_precacc12_069.txt.gz
Total_Precipitation_Accumulation
0.00 0.00 0.00 0.00 0.00 0.00 0.00 0.00 0.01 0.02 0.02 0.01 0.02 0.08 0.15 0.38 0.22 0.19 0.07 0.03 0.04 0.01 0.01 0.01 0.01 0.01 0.04 0.00 0.00 0.00 0.00 0.00 0.00 0.00 0.00 0.00 0.00 0.00 0.00 0.00 0.00 0.00 0.00
0.00 0.00 0.00 0.00 0.00 0.00 0.00 0.01 0.00 0.01 0.01 0.01 0.00 0.02 0.05 0.12 0.15 0.17 0.20 0.07 0.03 0.02 0.02 0.01 0.01 0.01 0.02 0.02 0.00 0.00 0.00 0.00 0.00 0.00 0.00 0.00 0.00 0.00 0.00 0.00 0.00 0.00 0.00
0.00 0.00 0.00 0.00 0.00 0.00 0.00 0.00 0.00 0.01 0.01 0.01 0.01 0.01 0.02 0.05 0.11 0.22 0.43 0.20 0.04 0.05 0.03 0.01 0.01 0.00 0.01 0.01 0.00 0.00 0.00 0.00 0.00 0.00 0.00 0.00 0.01 0.00 0.00 0.00 0.00 0.00 0.00
0.00 0.00 0.00 0.00 0.00 0.00 0.00 0.00 0.00 0.00 0.00 0.01 0.01 0.01 0.01 0.02 0.02 0.03 0.20 0.32 0.12 0.04 0.04 0.03 0.02 0.00 0.01 0.03 0.01 0.00 0.00 0.00 0.00 0.00 0.00 0.00 0.03 0.09 0.06 0.00 0.00 0.00 0.00
0.00 0.00 0.00 0.00 0.00 0.00 0.00 0.00 0.00 0.00 0.01 0.01 0.01 0.01 0.00 0.00 0.00 0.00 0.03 0.21 0.20 0.08 0.03 0.01 0.03 0.02 0.01 0.03 0.07 0.02 0.00 0.00 0.02 0.01 0.00 0.00 0.00 0.01 0.10 0.05 0.01 0.00 0.00
0.00 0.00 0.00 0.00 0.00 0.00 0.00 0.00 0.00 0.00 0.01 0.00 0.00 0.00 0.00 0.00 0.00 0.00 0.00 0.04 0.11 0.09 0.06 0.03 0.03 0.03 0.02 0.02 0.08 0.07 0.02 0.00 0.01 0.07 0.04 0.04 0.03 0.01 0.01 0.02 0.02 0.03 0.01
0.00 0.00 0.00 0.00 0.00 0.00 0.00 0.00 0.00 0.01 0.00 0.00 0.00 0.00 0.00 0.00 0.00 0.00 0.00 0.00 0.01 0.05 0.06 0.05 0.05 0.04 0.03 0.01 0.04 0.09 0.08 0.06 0.07 0.08 0.04 0.06 0.08 0.05 0.03 0.07 0.03 0.03 0.03
0.00 0.00 0.00 0.00 0.00 0.00 0.00 0.00 0.00 0.00 0.01 0.00 0.00 0.00 0.00 0.00 0.00 0.00 0.00 0.00 0.00 0.00 0.00 0.01 0.03 0.04 0.04 0.05 0.03 0.06 0.07 0.05 0.08 0.08 0.05 0.03 0.03 0.04 0.01 0.03 0.05 0.02 0.02
0.00 0.00 0.00 0.00 0.00 0.00 0.00 0.00 0.00 0.00 0.00 0.01 0.00 0.00 0.00 0.00 0.00 0.00 0.00 0.00 0.00 0.00 0.00 0.00 0.02 0.02 0.03 0.03 0.04 0.05 0.06 0.08 0.02 0.03 0.06 0.05 0.01 0.04 0.05 0.03 0.05 0.05 0.01
0.00 0.00 0.00 0.00 0.00 0.00 0.00 0.00 0.00 0.00 0.00 0.00 0.00 0.00 0.00 0.00 0.00 0.00 0.00 0.00 0.00 0.00 0.00 0.00 0.01 0.02 0.02 0.02 0.03 0.03 0.04 0.05 0.02 0.02 0.03 0.04 0.02 0.01 0.05 0.04 0.04 0.07 0.04
0.00 0.00 0.00 0.00 0.00 0.00 0.00 0.00 0.00 0.00 0.00 0.00 0.00 0.00 0.00 0.00 0.00 0.00 0.00 0.00 0.00 0.00 0.00 0.00 0.00 0.00 0.00 0.01 0.01 0.00 0.00 0.00 0.00 0.00 0.00 0.00 0.02 0.02 0.02 0.03 0.03 0.02 0.02
0.00 0.00 0.00 0.01 0.01 0.01 0.01 0.01 0.01 0.01 0.01 0.01 0.00 0.00 0.00 0.00 0.00 0.00 0.00 0.00 0.00 0.00 0.00 0.00 0.00 0.00 0.00 0.00 0.00 0.00 0.00 0.00 0.00 0.00 0.00 0.00 0.00 0.02 0.02 0.03 0.02 0.02 0.03
0.00 0.00 0.01 0.02 0.04 0.13 0.15 0.15 0.11 0.07 0.04 0.03 0.02 0.01 0.00 0.00 0.00 0.00 0.00 0.00 0.00 0.00 0.00 0.00 0.00 0.00 0.00 0.00 0.00 0.00 0.00 0.00 0.00 0.00 0.00 0.00 0.01 0.02 0.03 0.03 0.03 0.02 0.03
0.02 0.03 0.03 0.04 0.07 0.12 0.16 0.20 0.17 0.15 0.09 0.06 0.03 0.03 0.02 0.02 0.01 0.00 0.00 0.00 0.00 0.00 0.00 0.00 0.00 0.00 0.00 0.00 0.00 0.00 0.00 0.00 0.00 0.00 0.00 0.00 0.02 0.02 0.02 0.02 0.03 0.03 0.03
0.00 0.01 0.01 0.01 0.01 0.02 0.03 0.05 0.05 0.06 0.09 0.10 0.05 0.07 0.06 0.06 0.04 0.02 0.01 0.01 0.00 0.00 0.00 0.00 0.00 0.00 0.00 0.00 0.00 0.00 0.00 0.00 0.00 0.00 0.00 0.00 0.00 0.00 0.01 0.01 0.02 0.03 0.05
0.00 0.00 0.00 0.00 0.00 0.00 0.00 0.00 0.00 0.02 0.02 0.02 0.06 0.10 0.03 0.06 0.07 0.10 0.14 0.08 0.02 0.04 0.02 0.01 0.00 0.00 0.00 0.00 0.00 0.00 0.00 0.00 0.00 0.00 0.00 0.00 0.00 0.00 0.02 0.05 0.08 0.07 0.07
0.00 0.00 0.00 0.00 0.00 0.00 0.00 0.00 0.00 0.00 0.00 0.00 0.01 0.01 0.01 0.01 0.03 0.07 0.08 0.05 0.04 0.09 0.03 0.05 0.04 0.02 0.02 0.03 0.03 0.03 0.00 0.00 0.00 0.00 0.00 0.00 0.00 0.01 0.02 0.06 0.11 0.12 0.18
0.01 0.00 0.00 0.00 0.00 0.00 0.00 0.00 0.00 0.00 0.00 0.00 0.00 0.00 0.00 0.01 0.02 0.03 0.01 0.02 0.06 0.05 0.05 0.05 0.04 0.06 0.04 0.05 0.10 0.17 0.10 0.04 0.02 0.01 0.00 0.01 0.01 0.04 0.06 0.06 0.11 0.16 0.21
0.01 0.00 0.00 0.00 0.00 0.00 0.00 0.00 0.00 0.00 0.00 0.00 0.00 0.00 0.00 0.00 0.01 0.01 0.01 0.02 0.02 0.03 0.04 0.05 0.07 0.06 0.02 0.09 0.16 0.19 0.14 0.08 0.06 0.08 0.06 0.08 0.07 0.21 0.22 0.14 0.13 0.18 0.23
0.00 0.00 0.00 0.00 0.00 0.00 0.00 0.00 0.00 0.00 0.00 0.00 0.00 0.00 0.00 0.00 0.00 0.00 0.00 0.01 0.02 0.02 0.04 0.02 0.03 0.10 0.07 0.13 0.15 0.16 0.10 0.09 0.11 0.13 0.13 0.26 0.17 0.25 0.21 0.13 0.08 0.19 0.28
0.00 0.00 0.00 0.00 0.00 0.00 0.00 0.00 0.00 0.00 0.00 0.00 0.00 0.00 0.00 0.00 0.00 0.01 0.00 0.01 0.01 0.01 0.02 0.04 0.05 0.09 0.14 0.17 0.27 0.25 0.18 0.13 0.16 0.19 0.21 0.26 0.54 0.34 0.39 0.42 0.33 0.62 0.71
0.00 0.00 0.00 0.00 0.00 0.00 0.00 0.00 0.00 0.00 0.00 0.00 0.00 0.00 0.00 0.00 0.00 0.01 0.02 0.03 0.02 0.04 0.05 0.05 0.07 0.08 0.09 0.19 0.20 0.21 0.24 0.33 0.27 0.38 0.36 0.49 0.55 0.37 0.47 0.58 0.78 0.87 0.71
0.00 0.00 0.00 0.00 0.00 0.00 0.00 0.00 0.00 0.00 0.00 0.00 0.00 0.00 0.00 0.00 0.00 0.02 0.04 0.06 0.05 0.06 0.07 0.10 0.13 0.14 0.13 0.18 0.28 0.25 0.33 0.45 0.48 0.67 0.82 0.81 0.67 0.63 0.72 0.87 0.93 0.92 0.89
0.00 0.00 0.00 0.00 0.00 0.00 0.00 0.00 0.00 0.00 0.00 0.01 0.01 0.01 0.01 0.02 0.00 0.04 0.06 0.05 0.06 0.09 0.15 0.23 0.29 0.29 0.30 0.28 0.26 0.28 0.32 0.45 0.58 0.83 0.95 0.95 0.93 0.91 0.97 0.99 0.95 0.93 0.97
0.00 0.00 0.00 0.00 0.00 0.00 0.00 0.00 0.01 0.01 0.01 0.02 0.04 0.05 0.05 0.05 0.06 0.09 0.15 0.15 0.25 0.31 0.36 0.42 0.44 0.46 0.58 0.79 0.86 0.87 0.95 1.01 1.12 1.17 1.26 1.30 1.29 1.28 1.25 1.15 1.02 0.92 0.83
0.00 0.00 0.00 0.01 0.01 0.01 0.02 0.03 0.03 0.03 0.03 0.05 0.08 0.11 0.08 0.10 0.12 0.13 0.19 0.33 0.39 0.39 0.46 0.53 0.55 0.77 0.95 1.05 1.04 1.07 1.11 1.15 1.13 1.03 1.02 0.96 0.86 0.75 0.67 0.58 0.51 0.42 0.34

GFSMW_prec_precacc12_072.txt.gz
Total_Precipitation_Accumulation
0.00 0.00 0.00 0.00 0.00 0.00 0.00 0.00 0.01 0.02 0.01 0.01 0.01 0.02 0.04 0.09 0.08 0.15 0.28 0.48 0.32 0.21 0.05 0.02 0.01 0.01 0.04 0.00 0.00 0.00 0.00 0.00 0.00 0.00 0.00 0.00 0.00 0.00 0.00 0.00 0.00 0.00 0.00
0.00 0.00 0.00 0.00 0.00 0.00 0.00 0.00 0.00 0.02 0.01 0.00 0.00 0.01 0.01 0.05 0.09 0.16 0.23 0.18 0.19 0.18 0.09 0.04 0.01 0.01 0.02 0.02 0.00 0.00 0.00 0.00 0.00 0.00 0.00 0.00 0.00 0.00 0.00 0.00 0.00 0.00 0.00
0.00 0.00 0.00 0.00 0.00 0.00 0.00 0.00 0.00 0.01 0.01 0.01 0.01 0.01 0.01 0.03 0.08 0.21 0.43 0.22 0.06 0.10 0.11 0.07 0.02 0.00 0.01 0.01 0.00 0.00 0.00 0.00 0.00 0.00 0.00 0.00 0.00 0.00 0.00 0.00 0.00 0.00 0.00
0.00 0.00 0.00 0.00 0.00 0.00 0.00 0.00 0.00 0.01 0.01 0.01 0.01 0.01 0.01 0.02 0.02 0.03 0.20 0.37 0.13 0.05 0.10 0.10 0.06 0.01 0.01 0.02 0.01 0.00 0.00 0.00 0.00 0.00 0.00 0.00 0.00 0.01 0.02 0.01 0.00 0.00 0.00
0.00 0.00 0.00 0.00 0.00 0.00 0.00 0.00 0.00 0.00 0.01 0.01 0.01 0.01 0.00 0.00 0.01 0.01 0.03 0.24 0.29 0.10 0.07 0.13 0.08 0.03 0.01 0.02 0.03 0.01 0.00 0.00 0.00 0.00 0.00 0.00 0.00 0.00 0.03 0.01 0.00 0.00 0.00
0.00 0.00 0.00 0.00 0.00 0.00 0.00 0.00 0.00 0.00 0.01 0.00 0.01 0.00 0.00 0.00 0.00 0.01 0.01 0.05 0.17 0.17 0.08 0.12 0.13 0.05 0.01 0.02 0.06 0.06 0.01 0.00 0.00 0.01 0.01 0.01 0.00 0.00 0.00 0.00 0.00 0.00 0.00
0.00 0.00 0.00 0.00 0.00 0.00 0.00 0.00 0.00 0.00 0.00 0.00 0.00 0.00 0.00 0.00 0.01 0.01 0.00 0.01 0.03 0.09 0.09 0.06 0.07 0.05 0.03 0.02 0.05 0.10 0.06 0.02 0.00 0.01 0.00 0.02 0.04 0.02 0.01 0.01 0.01 0.01 0.00
0.00 0.00 0.00 0.00 0.00 0.00 0.00 0.00 0.00 0.00 0.00 0.00 0.00 0.00 0.00 0.00 0.00 0.01 0.01 0.01 0.00 0.00 0.01 0.05 0.08 0.08 0.08 0.07 0.06 0.11 0.12 0.10 0.08 0.03 0.02 0.02 0.02 0.03 0.01 0.01 0.01 0.01 0.01
0.00 0.00 0.00 0.00 0.00 0.00 0.00 0.00 0.00 0.00 0.00 0.00 0.00 0.00 0.00 0.00 0.00 0.00 0.00 0.00 0.00 0.00 0.00 0.01 0.05 0.04 0.07 0.09 0.08 0.09 0.09 0.11 0.10 0.09 0.07 0.04 0.01 0.01 0.03 0.02 0.02 0.03 0.00
0.00 0.00 0.00 0.00 0.00 0.00 0.00 0.00 0.00 0.00 0.00 0.00 0.00 0.00 0.00 0.00 0.00 0.00 0.00 0.00 0.00 0.00 0.00 0.00 0.00 0.00 0.02 0.05 0.05 0.04 0.04 0.07 0.05 0.06 0.08 0.06 0.01 0.00 0.03 0.02 0.02 0.04 0.03
0.00 0.00 0.00 0.00 0.00 0.01 0.02 0.00 0.00 0.00 0.00 0.00 0.00 0.00 0.00 0.00 0.00 0.00 0.00 0.00 0.00 0.00 0.00 0.00 0.00 0.00 0.00 0.01 0.03 0.01 0.01 0.01 0.00 0.01 0.02 0.01 0.01 0.01 0.01 0.02 0.02 0.02 0.03
0.00 0.00 0.00 0.01 0.01 0.04 0.03 0.01 0.01 0.01 0.01 0.02 0.01 0.00 0.00 0.00 0.00 0.00 0.00 0.00 0.00 0.00 0.00 0.00 0.00 0.00 0.00 0.00 0.00 0.00 0.00 0.00 0.00 0.00 0.00 0.00 0.00 0.00 0.00 0.01 0.01 0.02 0.03
0.00 0.00 0.02 0.03 0.06 0.15 0.17 0.17 0.15 0.12 0.07 0.06 0.03 0.02 0.01 0.00 0.00 0.00 0.00 0.00 0.00 0.00 0.00 0.00 0.00 0.00 0.00 0.00 0.00 0.00 0.00 0.00 0.00 0.00 0.00 0.00 0.00 0.00 0.00 0.00 0.00 0.01 0.02
0.03 0.04 0.06 0.08 0.13 0.20 0.26 0.28 0.23 0.19 0.12 0.08 0.03 0.04 0.02 0.02 0.01 0.00 0.00 0.00 0.00 0.00 0.00 0.00 0.00 0.00 0.00 0.00 0.00 0.00 0.00 0.00 0.00 0.00 0.00 0.00 0.00 0.00 0.00 0.00 0.00 0.01 0.01
0.01 0.03 0.04 0.05 0.06 0.07 0.09 0.08 0.08 0.08 0.10 0.09 0.05 0.08 0.06 0.06 0.05 0.03 0.02 0.01 0.00 0.00 0.00 0.00 0.00 0.00 0.00 0.00 0.00 0.00 0.00 0.00 0.00 0.00 0.00 0.00 0.00 0.00 0.00 0.00 0.00 0.01 0.01
0.00 0.00 0.00 0.00 0.01 0.01 0.00 0.00 0.02 0.02 0.03 0.02 0.06 0.10 0.04 0.07 0.08 0.11 0.15 0.09 0.03 0.06 0.03 0.02 0.01 0.01 0.01 0.01 0.00 0.00 0.00 0.00 0.00 0.00 0.00 0.00 0.00 0.00 0.00 0.00 0.01 0.01 0.02
0.00 0.00 0.00 0.00 0.00 0.00 0.00 0.00 0.00 0.00 0.00 0.00 0.01 0.01 0.01 0.01 0.03 0.08 0.09 0.07 0.07 0.12 0.06 0.07 0.06 0.03 0.05 0.10 0.09 0.09 0.04 0.01 0.00 0.00 0.00 0.00 0.00 0.00 0.00 0.00 0.02 0.04 0.07
0.05 0.02 0.02 0.01 0.00 0.00 0.00 0.00 0.00 0.00 0.00 0.00 0.00 0.00 0.00 0.01 0.02 0.03 0.01 0.02 0.06 0.06 0.07 0.07 0.06 0.09 0.09 0.14 0.20 0.28 0.18 0.08 0.03 0.01 0.04 0.04 0.02 0.01 0.02 0.01 0.01 0.02 0.04
0.08 0.04 0.01 0.00 0.00 0.00 0.00 0.00 0.00 0.00 0.00 0.00 0.00 0.00 0.00 0.00 0.01 0.01 0.01 0.02 0.02 0.03 0.04 0.06 0.08 0.08 0.05 0.16 0.18 0.22 0.16 0.09 0.07 0.12 0.10 0.11 0.08 0.10 0.13 0.09 0.07 0.09 0.12
0.05 0.01 0.00 0.00 0.00 0.00 0.00 0.00 0.00 0.00 0.00 0.00 0.00 0.00 0.00 0.00 0.00 0.00 0.00 0.01 0.02 0.02 0.04 0.02 0.03 0.11 0.07 0.15 0.14 0.15 0.10 0.06 0.08 0.12 0.15 0.35 0.18 0.15 0.16 0.13 0.08 0.21 0.32
0.00 0.00 0.00 0.00 0.00 0.00 0.00 0.00 0.00 0.00 0.00 0.00 0.00 0.00 0.00 0.00 0.00 0.00 0.00 0.01 0.01 0.01 0.02 0.04 0.05 0.09 0.14 0.16 0.24 0.21 0.16 0.11 0.16 0.22 0.24 0.26 0.53 0.27 0.32 0.43 0.35 0.80 0.81
0.00 0.00 0.00 0.00 0.00 0.00 0.00 0.00 0.00 0.00 0.00 0.00 0.00 0.00 0.00 0.00 0.00 0.01 0.02 0.03 0.02 0.04 0.04 0.05 0.06 0.07 0.07 0.17 0.17 0.18 0.21 0.30 0.26 0.39 0.38 0.50 0.54 0.33 0.40 0.56 0.83 1.00 0.86
0.00 0.00 0.00 0.00 0.00 0.00 0.00 0.00 0.00 0.00 0.00 0.00 0.00 0.00 0.00 0.00 0.00 0.01 0.03 0.04 0.05 0.06 0.07 0.09 0.11 0.11 0.09 0.13 0.24 0.20 0.26 0.38 0.38 0.57 0.76 0.79 0.67 0.63 0.72 0.89 0.98 1.02 1.06
0.00 0.00 0.00 0.00 0.00 0.00 0.00 0.00 0.00 0.00 0.00 0.00 0.00 0.00 0.01 0.01 0.00 0.01 0.02 0.03 0.04 0.05 0.09 0.15 0.19 0.20 0.21 0.18 0.17 0.20 0.24 0.35 0.49 0.76 0.88 0.89 0.88 0.89 0.97 1.04 1.05 1.08 1.17
0.00 0.00 0.00 0.00 0.00 0.00 0.00 0.00 0.00 0.00 0.00 0.00 0.00 0.01 0.02 0.03 0.04 0.07 0.11 0.11 0.19 0.21 0.23 0.30 0.33 0.35 0.45 0.65 0.69 0.71 0.80 0.88 1.00 1.05 1.15 1.20 1.21 1.23 1.24 1.18 1.10 1.01 0.91
0.00 0.00 0.01 0.01 0.01 0.01 0.01 0.01 0.01 0.00 0.00 0.00 0.01 0.02 0.02 0.03 0.05 0.07 0.12 0.19 0.24 0.24 0.28 0.33 0.38 0.56 0.70 0.78 0.76 0.80 0.88 0.97 1.01 0.92 0.93 0.91 0.84 0.76 0.69 0.61 0.54 0.46 0.38

GFSMW_prec_precacc12_075.txt.gz
Total_Precipitation_Accumulation
0.00 0.00 0.00 0.00 0.00 0.00 0.00 0.00 0.01 0.02 0.01 0.01 0.01 0.02 0.02 0.03 0.03 0.06 0.31 0.64 0.69 0.56 0.16 0.11 0.03 0.02 0.01 0.00 0.00 0.00 0.00 0.00 0.00 0.00 0.00 0.00 0.00 0.00 0.00 0.00 0.00 0.00 0.00
0.00 0.00 0.00 0.00 0.00 0.00 0.00 0.00 0.00 0.01 0.01 0.00 0.01 0.01 0.00 0.02 0.05 0.10 0.21 0.31 0.48 0.62 0.27 0.17 0.06 0.01 0.01 0.00 0.00 0.00 0.00 0.00 0.00 0.00 0.00 0.00 0.00 0.00 0.00 0.00 0.00 0.00 0.00
0.00 0.00 0.00 0.00 0.00 0.00 0.00 0.00 0.00 0.01 0.01 0.01 0.01 0.01 0.01 0.02 0.04 0.20 0.45 0.31 0.23 0.48 0.37 0.19 0.07 0.01 0.01 0.01 0.00 0.00 0.00 0.00 0.00 0.00 0.00 0.00 0.00 0.00 0.00 0.00 0.00 0.00 0.00
0.00 0.00 0.00 0.00 0.00 0.00 0.00 0.00 0.00 0.01 0.01 0.01 0.01 0.01 0.01 0.01 0.02 0.03 0.21 0.42 0.17 0.16 0.27 0.21 0.09 0.01 0.01 0.02 0.01 0.00 0.00 0.00 0.00 0.00 0.00 0.00 0.00 0.00 0.00 0.00 0.00 0.00 0.00
0.00 0.00 0.00 0.00 0.00 0.00 0.00 0.00 0.00 0.00 0.01 0.02 0.01 0.01 0.00 0.00 0.01 0.01 0.04 0.26 0.38 0.17 0.11 0.20 0.15 0.05 0.01 0.02 0.02 0.01 0.00 0.00 0.00 0.00 0.00 0.00 0.00 0.00 0.00 0.00 0.00 0.00 0.00
0.00 0.00 0.00 0.00 0.00 0.00 0.00 0.00 0.00 0.00 0.01 0.01 0.01 0.00 0.00 0.00 0.00 0.01 0.01 0.06 0.24 0.38 0.21 0.18 0.21 0.10 0.02 0.02 0.05 0.03 0.01 0.00 0.00 0.00 0.00 0.00 0.00 0.00 0.00 0.00 0.00 0.00 0.00
0.00 0.00 0.00 0.00 0.00 0.00 0.00 0.00 0.00 0.00 0.00 0.00 0.01 0.01 0.01 0.01 0.01 0.01 0.00 0.01 0.04 0.16 0.24 0.15 0.18 0.20 0.08 0.03 0.05 0.09 0.06 0.02 0.00 0.00 0.00 0.00 0.00 0.00 0.00 0.00 0.00 0.00 0.00
0.00 0.00 0.00 0.00 0.00 0.00 0.00 0.00 0.00 0.00 0.00 0.00 0.00 0.00 0.00 0.00 0.00 0.01 0.01 0.01 0.00 0.01 0.05 0.10 0.12 0.15 0.18 0.12 0.07 0.09 0.11 0.10 0.05 0.01 0.01 0.01 0.01 0.02 0.01 0.01 0.01 0.00 0.00
0.00 0.00 0.00 0.00 0.00 0.00 0.00 0.00 0.00 0.00 0.00 0.00 0.00 0.00 0.00 0.00 0.00 0.00 0.00 0.01 0.01 0.00 0.00 0.03 0.12 0.12 0.13 0.14 0.10 0.08 0.08 0.09 0.10 0.08 0.05 0.02 0.01 0.01 0.01 0.01 0.00 0.01 0.00
0.00 0.00 0.00 0.00 0.00 0.00 0.00 0.00 0.00 0.01 0.00 0.00 0.00 0.00 0.00 0.00 0.00 0.00 0.00 0.00 0.01 0.01 0.00 0.00 0.01 0.09 0.10 0.09 0.10 0.07 0.04 0.06 0.06 0.07 0.11 0.09 0.03 0.00 0.00 0.00 0.01 0.02 0.02
0.00 0.00 0.00 0.00 0.00 0.01 0.03 0.01 0.00 0.00 0.00 0.00 0.00 0.00 0.00 0.00 0.00 0.00 0.00 0.00 0.00 0.01 0.00 0.00 0.00 0.00 0.01 0.00 0.04 0.09 0.05 0.03 0.02 0.03 0.04 0.04 0.04 0.06 0.04 0.02 0.02 0.02 0.03
0.01 0.01 0.01 0.01 0.02 0.05 0.04 0.02 0.01 0.02 0.01 0.02 0.01 0.00 0.00 0.00 0.00 0.00 0.00 0.00 0.00 0.00 0.00 0.00 0.00 0.00 0.00 0.00 0.00 0.01 0.04 0.04 0.03 0.01 0.01 0.01 0.02 0.02 0.02 0.02 0.02 0.02 0.01
0.02 0.01 0.04 0.06 0.09 0.13 0.16 0.18 0.16 0.14 0.13 0.09 0.03 0.02 0.01 0.00 0.00 0.00 0.00 0.00 0.00 0.00 0.00 0.00 0.00 0.00 0.00 0.00 0.00 0.00 0.00 0.00 0.00 0.00 0.00 0.00 0.00 0.00 0.00 0.00 0.00 0.00 0.00
0.07 0.06 0.06 0.10 0.15 0.22 0.25 0.25 0.29 0.26 0.14 0.08 0.05 0.06 0.03 0.02 0.01 0.00 0.00 0.00 0.00 0.00 0.00 0.00 0.00 0.00 0.00 0.00 0.00 0.00 0.00 0.00 0.00 0.00 0.00 0.00 0.00 0.00 0.00 0.00 0.00 0.00 0.00
0.03 0.08 0.09 0.08 0.10 0.13 0.15 0.12 0.09 0.08 0.06 0.03 0.04 0.09 0.07 0.07 0.06 0.04 0.02 0.01 0.00 0.00 0.00 0.00 0.00 0.00 0.00 0.00 0.00 0.00 0.00 0.00 0.00 0.00 0.00 0.00 0.00 0.00 0.00 0.00 0.00 0.00 0.00
0.00 0.01 0.01 0.02 0.03 0.05 0.03 0.02 0.02 0.02 0.01 0.00 0.03 0.07 0.04 0.08 0.09 0.13 0.16 0.10 0.04 0.08 0.04 0.03 0.03 0.03 0.04 0.06 0.02 0.01 0.00 0.00 0.00 0.00 0.00 0.00 0.00 0.00 0.00 0.00 0.00 0.00 0.00
0.00 0.00 0.00 0.00 0.00 0.00 0.00 0.00 0.00 0.01 0.03 0.03 0.00 0.01 0.00 0.01 0.03 0.08 0.09 0.07 0.08 0.13 0.09 0.11 0.10 0.08 0.12 0.20 0.11 0.12 0.04 0.01 0.01 0.00 0.00 0.00 0.00 0.00 0.00 0.00 0.00 0.00 0.02
0.13 0.07 0.03 0.01 0.00 0.00 0.00 0.00 0.00 0.00 0.00 0.00 0.00 0.00 0.00 0.00 0.00 0.00 0.01 0.02 0.06 0.06 0.07 0.08 0.07 0.11 0.12 0.18 0.20 0.27 0.18 0.08 0.03 0.02 0.05 0.05 0.03 0.04 0.06 0.02 0.02 0.01 0.02
0.23 0.18 0.06 0.03 0.01 0.00 0.00 0.00 0.00 0.00 0.00 0.00 0.00 0.00 0.00 0.00 0.00 0.00 0.00 0.02 0.02 0.03 0.03 0.04 0.07 0.07 0.05 0.16 0.18 0.22 0.15 0.09 0.08 0.13 0.18 0.21 0.10 0.12 0.15 0.09 0.06 0.07 0.12
0.08 0.04 0.03 0.02 0.01 0.00 0.00 0.00 0.00 0.00 0.00 0.00 0.00 0.00 0.00 0.00 0.00 0.00 0.00 0.01 0.02 0.02 0.03 0.02 0.03 0.10 0.07 0.14 0.12 0.12 0.07 0.03 0.06 0.12 0.20 0.41 0.18 0.10 0.12 0.09 0.06 0.18 0.41
0.02 0.00 0.00 0.01 0.01 0.00 0.00 0.00 0.00 0.00 0.00 0.00 0.00 0.00 0.00 0.00 0.00 0.00 0.00 0.00 0.00 0.01 0.01 0.03 0.04 0.06 0.11 0.11 0.16 0.14 0.13 0.08 0.13 0.19 0.21 0.24 0.48 0.23 0.25 0.35 0.25 0.65 0.69
0.00 0.00 0.00 0.00 0.00 0.00 0.00 0.00 0.00 0.00 0.00 0.00 0.00 0.00 0.00 0.00 0.00 0.00 0.00 0.00 0.00 0.00 0.01 0.02 0.05 0.05 0.05 0.13 0.12 0.13 0.16 0.23 0.23 0.34 0.33 0.41 0.45 0.26 0.33 0.49 0.75 0.92 0.81
0.00 0.00 0.00 0.00 0.00 0.00 0.00 0.00 0.00 0.00 0.00 0.00 0.00 0.00 0.00 0.00 0.00 0.00 0.00 0.00 0.00 0.01 0.02 0.06 0.10 0.10 0.07 0.10 0.17 0.14 0.18 0.28 0.31 0.45 0.57 0.55 0.45 0.42 0.51 0.68 0.80 0.88 0.95
0.00 0.00 0.00 0.00 0.01 0.00 0.00 0.00 0.00 0.00 0.00 0.00 0.00 0.00 0.00 0.00 0.00 0.00 0.00 0.01 0.01 0.01 0.05 0.10 0.13 0.12 0.13 0.11 0.11 0.14 0.17 0.24 0.32 0.50 0.59 0.62 0.62 0.64 0.75 0.85 0.90 0.96 1.08
0.00 0.00 0.00 0.01 0.01 0.00 0.00 0.00 0.00 0.00 0.00 0.00 0.00 0.00 0.00 0.00 0.01 0.03 0.05 0.05 0.10 0.07 0.07 0.12 0.16 0.18 0.26 0.39 0.38 0.38 0.43 0.47 0.58 0.66 0.74 0.81 0.86 0.90 0.95 0.97 0.97 0.92 0.85
0.00 0.00 0.01 0.01 0.01 0.01 0.01 0.00 0.00 0.00 0.00 0.00 0.00 0.00 0.00 0.00 0.01 0.02 0.04 0.07 0.10 0.09 0.11 0.13 0.16 0.29 0.42 0.42 0.40 0.46 0.50 0.56 0.60 0.57 0.59 0.60 0.60 0.60 0.56 0.51 0.47 0.42 0.36

GFSMW_prec_precacc12_081.txt.gz
Total_Precipitation_Accumulation
0.00 0.00 0.00 0.00 0.00 0.00 0.00 0.00 0.01 0.00 0.00 0.01 0.02 0.02 0.02 0.02 0.01 0.04 0.30 0.65 0.82 1.54 0.83 0.42 0.13 0.12 0.12 0.18 0.14 0.12 0.05 0.03 0.01 0.00 0.01 0.01 0.00 0.00 0.00 0.00 0.00 0.00 0.00
0.00 0.00 0.00 0.00 0.00 0.00 0.00 0.00 0.00 0.01 0.00 0.00 0.01 0.02 0.01 0.02 0.02 0.03 0.09 0.29 0.50 0.91 1.20 0.65 0.41 0.16 0.14 0.16 0.12 0.10 0.07 0.04 0.01 0.00 0.01 0.02 0.02 0.01 0.00 0.00 0.00 0.00 0.00
0.00 0.00 0.00 0.00 0.00 0.00 0.00 0.00 0.00 0.00 0.01 0.00 0.01 0.01 0.01 0.02 0.03 0.05 0.06 0.13 0.30 0.64 0.86 0.74 0.53 0.32 0.18 0.11 0.03 0.05 0.05 0.01 0.01 0.00 0.00 0.01 0.01 0.01 0.00 0.00 0.00 0.00 0.00
0.00 0.00 0.00 0.00 0.00 0.00 0.00 0.00 0.00 0.00 0.01 0.01 0.01 0.01 0.01 0.01 0.01 0.01 0.03 0.12 0.12 0.32 0.63 0.68 0.60 0.39 0.22 0.16 0.04 0.04 0.06 0.03 0.01 0.00 0.00 0.00 0.00 0.00 0.01 0.01 0.01 0.00 0.00
0.00 0.00 0.00 0.00 0.00 0.00 0.00 0.00 0.00 0.00 0.00 0.01 0.00 0.01 0.01 0.01 0.01 0.02 0.02 0.09 0.23 0.15 0.45 0.61 0.64 0.40 0.27 0.15 0.07 0.04 0.04 0.03 0.01 0.00 0.01 0.00 0.01 0.00 0.00 0.00 0.00 0.00 0.00
0.00 0.00 0.00 0.00 0.00 0.00 0.00 0.00 0.00 0.00 0.00 0.00 0.01 0.00 0.01 0.01 0.02 0.02 0.03 0.04 0.16 0.41 0.48 0.61 0.51 0.47 0.28 0.15 0.06 0.04 0.03 0.02 0.01 0.00 0.00 0.00 0.01 0.00 0.00 0.00 0.00 0.00 0.00
0.00 0.00 0.00 0.00 0.00 0.00 0.00 0.00 0.00 0.00 0.00 0.00 0.01 0.01 0.01 0.01 0.02 0.01 0.01 0.02 0.04 0.15 0.33 0.47 0.41 0.38 0.31 0.12 0.06 0.05 0.02 0.02 0.00 0.00 0.00 0.01 0.00 0.00 0.00 0.00 0.00 0.00 0.00
0.00 0.00 0.00 0.00 0.00 0.00 0.00 0.00 0.00 0.00 0.00 0.00 0.00 0.00 0.01 0.01 0.01 0.01 0.02 0.03 0.02 0.02 0.11 0.30 0.35 0.27 0.28 0.19 0.11 0.07 0.05 0.07 0.04 0.02 0.01 0.02 0.02 0.01 0.01 0.01 0.00 0.00 0.00
0.00 0.00 0.00 0.00 0.00 0.00 0.00 0.00 0.00 0.00 0.01 0.01 0.00 0.01 0.00 0.01 0.01 0.00 0.01 0.03 0.03 0.03 0.02 0.08 0.27 0.28 0.18 0.18 0.16 0.11 0.07 0.07 0.09 0.07 0.04 0.01 0.01 0.02 0.01 0.01 0.01 0.03 0.01
0.00 0.00 0.00 0.00 0.00 0.00 0.01 0.01 0.00 0.01 0.01 0.02 0.00 0.00 0.00 0.01 0.01 0.00 0.00 0.01 0.02 0.03 0.03 0.03 0.05 0.19 0.27 0.18 0.15 0.12 0.06 0.06 0.06 0.06 0.10 0.08 0.03 0.01 0.01 0.01 0.01 0.02 0.03
0.01 0.00 0.00 0.00 0.00 0.02 0.03 0.02 0.01 0.00 0.01 0.03 0.00 0.00 0.00 0.01 0.00 0.00 0.00 0.00 0.02 0.03 0.02 0.04 0.02 0.03 0.10 0.12 0.14 0.13 0.11 0.08 0.03 0.03 0.04 0.04 0.04 0.06 0.04 0.03 0.03 0.04 0.06
0.03 0.03 0.03 0.01 0.02 0.05 0.05 0.03 0.02 0.01 0.02 0.05 0.01 0.00 0.00 0.01 0.01 0.01 0.01 0.00 0.00 0.01 0.02 0.03 0.03 0.01 0.01 0.04 0.07 0.09 0.09 0.08 0.08 0.04 0.02 0.02 0.02 0.04 0.03 0.04 0.05 0.04 0.02
0.06 0.04 0.06 0.08 0.08 0.07 0.07 0.09 0.08 0.16 0.21 0.12 0.03 0.01 0.01 0.01 0.01 0.01 0.01 0.01 0.01 0.00 0.00 0.02 0.02 0.01 0.01 0.01 0.01 0.02 0.01 0.01 0.03 0.04 0.03 0.01 0.00 0.00 0.00 0.01 0.00 0.00 0.01
0.11 0.10 0.09 0.11 0.14 0.17 0.18 0.19 0.28 0.29 0.20 0.08 0.04 0.04 0.01 0.01 0.01 0.01 0.01 0.01 0.02 0.01 0.01 0.00 0.00 0.00 0.01 0.01 0.02 0.02 0.02 0.02 0.02 0.02 0.03 0.03 0.02 0.02 0.02 0.02 0.01 0.01 0.02
0.11 0.17 0.15 0.15 0.15 0.17 0.19 0.21 0.20 0.18 0.12 0.06 0.04 0.03 0.02 0.02 0.03 0.03 0.02 0.01 0.01 0.01 0.01 0.01 0.01 0.01 0.01 0.01 0.01 0.01 0.03 0.04 0.04 0.03 0.03 0.05 0.06 0.06 0.07 0.11 0.11 0.14 0.12
0.13 0.13 0.11 0.10 0.10 0.10 0.09 0.12 0.13 0.09 0.06 0.03 0.01 0.01 0.03 0.03 0.04 0.04 0.03 0.03 0.04 0.05 0.04 0.04 0.03 0.04 0.06 0.10 0.03 0.02 0.00 0.01 0.01 0.01 0.01 0.01 0.01 0.01 0.01 0.01 0.01 0.04 0.05
0.11 0.11 0.11 0.08 0.08 0.06 0.04 0.07 0.09 0.08 0.06 0.05 0.03 0.01 0.00 0.01 0.01 0.02 0.03 0.05 0.06 0.06 0.08 0.09 0.09 0.11 0.13 0.26 0.11 0.12 0.05 0.03 0.04 0.05 0.04 0.04 0.08 0.14 0.02 0.05 0.05 0.03 0.08
0.53 0.17 0.11 0.05 0.04 0.04 0.03 0.04 0.06 0.07 0.05 0.02 0.03 0.03 0.01 0.01 0.01 0.02 0.02 0.02 0.02 0.03 0.05 0.05 0.05 0.07 0.12 0.17 0.13 0.13 0.09 0.05 0.03 0.04 0.08 0.08 0.06 0.11 0.14 0.04 0.05 0.07 0.17
0.57 0.75 0.23 0.11 0.06 0.01 0.00 0.02 0.02 0.02 0.02 0.02 0.01 0.00 0.00 0.01 0.01 0.00 0.00 0.00 0.00 0.00 0.00 0.00 0.01 0.02 0.03 0.08 0.04 0.03 0.01 0.01 0.03 0.09 0.16 0.21 0.09 0.13 0.12 0.05 0.05 0.08 0.25
0.37 0.34 0.46 0.27 0.18 0.15 0.04 0.00 0.01 0.01 0.01 0.01 0.01 0.00 0.00 0.00 0.00 0.00 0.00 0.00 0.00 0.00 0.00 0.00 0.00 0.01 0.00 0.03 0.01 0.00 0.00 0.00 0.02 0.07 0.16 0.34 0.11 0.05 0.05 0.04 0.04 0.16 0.41
0.22 0.23 0.15 0.12 0.12 0.14 0.17 0.12 0.04 0.02 0.01 0.01 0.01 0.01 0.00 0.00 0.01 0.01 0.00 0.00 0.00 0.00 0.00 0.00 0.00 0.00 0.01 0.01 0.01 0.01 0.00 0.00 0.04 0.10 0.11 0.12 0.18 0.05 0.06 0.14 0.13 0.41 0.44
0.14 0.08 0.10 0.04 0.01 0.00 0.01 0.02 0.05 0.06 0.05 0.03 0.01 0.01 0.01 0.01 0.01 0.01 0.01 0.01 0.00 0.00 0.00 0.00 0.00 0.00 0.00 0.02 0.01 0.01 0.01 0.02 0.03 0.08 0.10 0.15 0.15 0.06 0.07 0.15 0.27 0.40 0.43
0.05 0.00 0.00 0.00 0.00 0.00 0.00 0.00 0.00 0.00 0.00 0.01 0.01 0.01 0.01 0.01 0.01 0.01 0.01 0.00 0.00 0.00 0.00 0.00 0.01 0.01 0.00 0.01 0.02 0.01 0.01 0.02 0.02 0.05 0.10 0.13 0.12 0.11 0.14 0.20 0.24 0.28 0.33
0.04 0.00 0.00 0.00 0.01 0.00 0.00 0.00 0.00 0.00 0.00 0.00 0.00 0.00 0.00 0.00 0.00 0.00 0.01 0.01 0.01 0.00 0.00 0.00 0.01 0.01 0.01 0.01 0.01 0.01 0.01 0.02 0.02 0.04 0.05 0.07 0.09 0.12 0.15 0.19 0.22 0.25 0.30
0.14 0.01 0.00 0.00 0.00 0.00 0.00 0.00 0.00 0.00 0.00 0.00 0.00 0.00 0.00 0.00 0.01 0.02 0.02 0.02 0.04 0.01 0.01 0.02 0.02 0.02 0.04 0.06 0.02 0.01 0.02 0.03 0.04 0.04 0.04 0.06 0.06 0.07 0.08 0.10 0.14 0.14 0.13
0.07 0.02 0.01 0.01 0.01 0.00 0.00 0.00 0.00 0.00 0.00 0.00 0.00 0.00 0.00 0.00 0.00 0.00 0.02 0.02 0.02 0.01 0.02 0.02 0.02 0.04 0.05 0.02 0.01 0.01 0.02 0.02 0.03 0.03 0.05 0.06 0.07 0.07 0.08 0.07 0.07 0.06 0.06

GFSMW_prec_precacc12_087.txt.gz
Total_Precipitation_Accumulation
0.00 0.00 0.00 0.00 0.00 0.00 0.00 0.00 0.00 0.03 0.02 0.01 0.01 0.01 0.01 0.01 0.01 0.01 0.01 0.04 0.19 1.07 0.78 0.38 0.16 0.13 0.14 0.21 0.33 0.50 0.46 0.57 0.35 0.10 0.03 0.01 0.00 0.00 0.00 0.00 0.00 0.00 0.00
0.00 0.00 0.00 0.00 0.00 0.00 0.00 0.00 0.00 0.02 0.01 0.00 0.00 0.00 0.01 0.02 0.02 0.03 0.02 0.05 0.06 0.34 1.01 0.54 0.41 0.22 0.19 0.18 0.32 0.40 0.41 0.43 0.20 0.04 0.01 0.03 0.03 0.01 0.00 0.00 0.00 0.00 0.00
0.00 0.00 0.00 0.00 0.00 0.00 0.00 0.00 0.01 0.02 0.00 0.00 0.00 0.00 0.01 0.02 0.03 0.04 0.04 0.02 0.12 0.24 0.57 0.69 0.61 0.40 0.31 0.20 0.15 0.25 0.21 0.23 0.17 0.01 0.00 0.01 0.02 0.01 0.01 0.00 0.00 0.00 0.00
0.00 0.00 0.00 0.00 0.00 0.00 0.00 0.00 0.01 0.02 0.00 0.00 0.00 0.00 0.01 0.01 0.01 0.01 0.02 0.03 0.07 0.26 0.45 0.51 0.56 0.47 0.33 0.36 0.23 0.22 0.22 0.17 0.17 0.04 0.00 0.00 0.00 0.00 0.01 0.01 0.00 0.00 0.00
0.00 0.00 0.00 0.00 0.00 0.00 0.00 0.00 0.05 0.04 0.00 0.00 0.00 0.00 0.01 0.01 0.01 0.01 0.02 0.05 0.04 0.06 0.39 0.43 0.57 0.49 0.40 0.32 0.29 0.25 0.24 0.15 0.13 0.04 0.02 0.01 0.01 0.00 0.00 0.00 0.00 0.00 0.00
0.00 0.00 0.00 0.00 0.00 0.00 0.00 0.00 0.03 0.03 0.00 0.00 0.00 0.00 0.00 0.01 0.02 0.01 0.02 0.04 0.04 0.12 0.34 0.48 0.38 0.53 0.41 0.32 0.33 0.25 0.20 0.15 0.11 0.07 0.02 0.01 0.01 0.01 0.00 0.01 0.01 0.00 0.00
0.00 0.00 0.00 0.00 0.00 0.02 0.02 0.00 0.02 0.02 0.00 0.00 0.00 0.00 0.01 0.01 0.01 0.01 0.02 0.02 0.02 0.04 0.15 0.38 0.38 0.37 0.44 0.31 0.34 0.35 0.23 0.16 0.10 0.05 0.04 0.03 0.01 0.00 0.01 0.01 0.01 0.01 0.00
0.01 0.00 0.00 0.00 0.00 0.00 0.02 0.02 0.05 0.04 0.02 0.01 0.00 0.00 0.00 0.00 0.01 0.01 0.02 0.02 0.01 0.01 0.06 0.20 0.34 0.29 0.42 0.43 0.28 0.25 0.19 0.15 0.10 0.07 0.05 0.04 0.04 0.03 0.02 0.02 0.01 0.01 0.01
0.02 0.02 0.00 0.00 0.01 0.04 0.07 0.05 0.06 0.07 0.06 0.06 0.01 0.02 0.01 0.01 0.01 0.01 0.02 0.03 0.03 0.03 0.02 0.06 0.17 0.26 0.25 0.40 0.29 0.20 0.14 0.12 0.09 0.07 0.06 0.05 0.05 0.06 0.03 0.02 0.02 0.05 0.03
0.00 0.02 0.03 0.05 0.10 0.43 0.63 0.53 0.28 0.15 0.08 0.09 0.04 0.02 0.02 0.01 0.01 0.01 0.02 0.02 0.02 0.03 0.04 0.03 0.05 0.13 0.28 0.28 0.35 0.26 0.17 0.13 0.08 0.06 0.05 0.03 0.02 0.01 0.02 0.01 0.01 0.03 0.04
0.01 0.02 0.07 0.10 0.22 0.29 0.39 0.42 0.33 0.23 0.05 0.08 0.05 0.04 0.03 0.02 0.01 0.02 0.01 0.01 0.02 0.03 0.03 0.05 0.03 0.05 0.16 0.27 0.36 0.34 0.18 0.17 0.13 0.06 0.05 0.04 0.02 0.01 0.01 0.02 0.03 0.04 0.06
0.02 0.02 0.04 0.05 0.17 0.27 0.29 0.27 0.23 0.21 0.11 0.06 0.10 0.12 0.04 0.02 0.02 0.02 0.02 0.01 0.01 0.02 0.02 0.04 0.04 0.02 0.04 0.13 0.26 0.35 0.22 0.11 0.13 0.16 0.10 0.06 0.05 0.05 0.05 0.05 0.05 0.03 0.02
0.04 0.05 0.05 0.06 0.08 0.09 0.11 0.11 0.11 0.19 0.21 0.13 0.14 0.11 0.10 0.02 0.02 0.02 0.02 0.02 0.01 0.00 0.00 0.03 0.04 0.02 0.02 0.05 0.14 0.18 0.16 0.16 0.09 0.16 0.16 0.10 0.07 0.06 0.06 0.06 0.04 0.02 0.01
0.07 0.08 0.09 0.09 0.09 0.10 0.09 0.17 0.23 0.26 0.17 0.13 0.13 0.11 0.08 0.03 0.02 0.01 0.03 0.03 0.02 0.02 0.01 0.01 0.06 0.06 0.02 0.06 0.10 0.11 0.13 0.20 0.19 0.12 0.15 0.12 0.10 0.05 0.03 0.03 0.02 0.02 0.03
0.08 0.12 0.11 0.12 0.11 0.12 0.13 0.22 0.25 0.24 0.18 0.17 0.20 0.16 0.08 0.04 0.03 0.03 0.02 0.01 0.02 0.02 0.02 0.01 0.03 0.06 0.03 0.03 0.05 0.08 0.11 0.13 0.23 0.25 0.19 0.16 0.17 0.15 0.14 0.14 0.12 0.16 0.14
0.14 0.15 0.14 0.13 0.14 0.11 0.12 0.18 0.23 0.20 0.14 0.08 0.08 0.06 0.05 0.03 0.03 0.03 0.03 0.02 0.04 0.03 0.03 0.04 0.03 0.03 0.04 0.08 0.04 0.03 0.02 0.05 0.10 0.15 0.16 0.12 0.08 0.04 0.06 0.07 0.07 0.08 0.08
0.16 0.15 0.16 0.15 0.16 0.14 0.11 0.14 0.19 0.17 0.17 0.12 0.07 0.05 0.05 0.04 0.03 0.04 0.04 0.05 0.03 0.04 0.04 0.05 0.06 0.07 0.06 0.12 0.05 0.05 0.01 0.02 0.06 0.07 0.09 0.10 0.17 0.21 0.03 0.08 0.09 0.08 0.15
0.46 0.22 0.19 0.17 0.15 0.14 0.14 0.15 0.15 0.20 0.18 0.15 0.15 0.09 0.08 0.08 0.07 0.07 0.08 0.08 0.05 0.04 0.04 0.04 0.03 0.03 0.05 0.07 0.05 0.05 0.01 0.01 0.03 0.04 0.05 0.06 0.06 0.14 0.16 0.05 0.11 0.16 0.25
0.41 0.74 0.39 0.23 0.25 0.17 0.14 0.15 0.18 0.20 0.23 0.27 0.22 0.16 0.12 0.10 0.12 0.11 0.09 0.09 0.11 0.12 0.10 0.07 0.04 0.03 0.04 0.08 0.06 0.05 0.00 0.02 0.04 0.04 0.03 0.03 0.03 0.12 0.09 0.02 0.02 0.05 0.16
0.39 0.43 0.69 0.63 0.48 0.49 0.30 0.18 0.19 0.19 0.26 0.29 0.26 0.22 0.24 0.17 0.11 0.11 0.13 0.11 0.09 0.09 0.12 0.14 0.13 0.11 0.06 0.08 0.06 0.03 0.00 0.00 0.00 0.00 0.01 0.01 0.00 0.01 0.00 0.00 0.00 0.00 0.05
0.29 0.34 0.29 0.41 0.62 0.69 0.77 0.57 0.33 0.27 0.27 0.33 0.40 0.39 0.35 0.31 0.25 0.14 0.09 0.08 0.06 0.05 0.04 0.05 0.07 0.07 0.04 0.02 0.02 0.02 0.01 0.00 0.00 0.00 0.00 0.00 0.01 0.00 0.00 0.00 0.00 0.01 0.02
0.22 0.19 0.22 0.20 0.20 0.21 0.30 0.60 0.73 0.62 0.49 0.39 0.35 0.43 0.41 0.44 0.46 0.40 0.31 0.17 0.07 0.03 0.01 0.01 0.01 0.02 0.04 0.03 0.01 0.00 0.00 0.00 0.00 0.01 0.01 0.01 0.00 0.00 0.00 0.00 0.00 0.00 0.00
0.12 0.05 0.07 0.04 0.02 0.03 0.05 0.09 0.17 0.36 0.43 0.46 0.49 0.43 0.41 0.38 0.30 0.26 0.31 0.34 0.29 0.17 0.05 0.02 0.02 0.02 0.02 0.02 0.01 0.00 0.00 0.00 0.00 0.00 0.00 0.00 0.00 0.00 0.00 0.00 0.00 0.00 0.00
0.14 0.04 0.01 0.00 0.00 0.01 0.00 0.01 0.01 0.01 0.04 0.06 0.07 0.09 0.12 0.13 0.14 0.15 0.15 0.13 0.15 0.16 0.14 0.10 0.08 0.07 0.06 0.06 0.05 0.04 0.02 0.01 0.01 0.01 0.00 0.00 0.00 0.00 0.00 0.00 0.00 0.00 0.00
0.29 0.10 0.06 0.04 0.04 0.01 0.00 0.00 0.00 0.00 0.00 0.00 0.00 0.00 0.00 0.01 0.02 0.02 0.02 0.02 0.03 0.01 0.02 0.03 0.02 0.02 0.03 0.03 0.02 0.02 0.02 0.01 0.00 0.00 0.00 0.00 0.00 0.00 0.00 0.00 0.00 0.00 0.00
0.20 0.15 0.12 0.09 0.04 0.01 0.01 0.01 0.00 0.00 0.00 0.00 0.00 0.00 0.00 0.00 0.00 0.00 0.01 0.01 0.01 0.00 0.01 0.01 0.01 0.01 0.01 0.01 0.00 0.00 0.00 0.00 0.00 0.00 0.00 0.00 0.00 0.00 0.00 0.00 0.00 0.00 0.00